Location: Go?cza
(50.3372°N, 19.9313°E)
Time: 22:49:05
(UTC+00:00)

COSMOS 2428 - Pass Details

Date: 23 May 2024
Orbit: 844 x 856 km, 70.9° (Epoch: 22 June)

Event Time Altitude Azimuth Distance (km) Brightness Sun altitude
Rises 01:57:38 0° 330° (NNW) 3,415 6.1 -6.4°
Reaches altitude 10° 02:00:06 10° 332° (NNW) 2,477 5.4 -6.1°
Maximum altitude 02:05:48 79° 59° (ENE) 867 3.0 -5.4°
Drops below altitude 10° 02:11:29 10° 147° (SSE) 2,468 5.1 -4.8°
Sets 02:13:56 0° 149° (SSE) 3,401 5.8 -4.5°
